K6PKL-2 Weather Reports


Display with metric or nautical units.
time (UTC)temp
F
wind
direction
speed
MPH
gust
MPH
rain 1hr
in
rain 24hr
in
rain mn
in
humidity
%
barometer
mb
20260507014007 85 9 5.0 5.0 0.00 0.00 0.00 50 1021.5
20260507013607 84 45 0.0 6.0 0.00 0.00 0.00 50 1021.4
20260507013207 84 315 3.0 6.0 0.00 0.00 0.00 51 1021.3
20260507012806 83 247 0.0 4.0 0.00 0.00 0.00 51 1021.3
20260507012406 83 326 0.0 6.0 0.00 0.00 0.00 53 1021.4
20260507012006 82 4 0.0 4.0 0.00 0.00 0.00 53 1021.4
20260507011606 82 335 3.0 7.0 0.00 0.00 0.00 53 1021.4
20260507011206 82 310 0.0 0.0 0.00 0.00 0.00 54 1021.3
20260507010806 81 321 0.0 7.0 0.00 0.00 0.00 54 1021.3
20260507010406 81 17 6.0 8.0 0.00 0.00 0.00 54 1021.4
20260507010005 81 2 0.0 0.0 0.00 0.00 0.00 54 1021.4
20260507005605 81 0 0.0 0.0 0.00 0.00 0.00 54 1021.5
20260507004405 81 2 2.0 5.0 0.00 0.00 0.00 53 1021.5
20260507004004 81 346 3.0 7.0 0.00 0.00 0.00 54 1021.4
20260507003604 81 38 0.0 0.0 0.00 0.00 0.00 54 1021.4
20260507003204 80 319 0.0 7.0 0.00 0.00 0.00 54 1021.5
20260507002804 80 355 0.0 7.0 0.00 0.00 0.00 54 1021.4
20260507002403 80 45 3.0 6.0 0.00 0.00 0.00 54 1021.4
20260507002003 80 213 1.0 1.0 0.00 0.00 0.00 54 1021.4
20260507001603 80 321 0.0 4.0 0.00 0.00 0.00 54 1021.6
20260507001203 80 335 3.0 4.0 0.00 0.00 0.00 54 1021.6
20260507000803 80 353 0.0 9.0 0.00 0.00 0.00 54 1021.6
20260507000405 80 29 0.0 5.0 0.00 0.00 0.00 54 1021.6
20260507000003 79 256 0.0 0.0 0.00 0.00 0.00 54 1021.6
20260506235602 79 299 0.0 6.0 0.00 0.00 0.00 54 1021.7
20260506235202 79 261 0.0 4.0 0.00 0.00 0.00 55 1021.7
20260506234802 79 270 0.0 6.0 0.00 0.00 0.00 55 1021.7
20260506234402 79 315 0.0 7.0 0.00 0.00 0.00 55 1021.7
20260506234002 79 2 5.0 6.0 0.00 0.00 0.00 55 1021.6
20260506233602 79 218 0.0 6.0 0.00 0.00 0.00 55 1021.7
20260506233202 79 180 0.0 8.0 0.00 0.00 0.00 55 1021.8
20260506232801 79 270 2.0 6.0 0.00 0.00 0.00 56 1021.9
20260506232401 79 4 4.0 4.0 0.00 0.00 0.00 55 1021.9
20260506232001 79 290 0.0 6.0 0.00 0.00 0.00 55 1021.8
20260506231601 78 263 3.0 6.0 0.00 0.00 0.00 55 1021.8
20260506231201 78 6 2.0 5.0 0.00 0.00 0.00 55 1021.9
20260506230801 78 344 0.0 8.0 0.00 0.00 0.00 56 1022.0
20260506230401 78 51 0.0 2.0 0.00 0.00 0.00 57 1022.0
20260506230000 78 0 0.0 1.0 0.00 0.00 0.00 57 1022.0
20260506225601 78 324 2.0 4.0 0.00 0.00 0.00 57 1022.1
20260506225200 78 231 2.0 5.0 0.00 0.00 0.00 57 1022.1
20260506224800 78 301 0.0 6.0 0.00 0.00 0.00 57 1022.1
20260506224400 77 355 3.0 7.0 0.00 0.00 0.00 57 1022.2
20260506223600 77 274 2.0 8.0 0.00 0.00 0.00 57 1022.3
20260506223159 77 319 0.0 8.0 0.00 0.00 0.00 57 1022.3
20260506222759 77 101 0.0 4.0 0.00 0.00 0.00 58 1022.4
20260506222359 77 312 1.0 10.0 0.00 0.00 0.00 58 1022.5
20260506221959 77 209 0.0 5.0 0.00 0.00 0.00 58 1022.7
20260506221600 77 240 0.0 7.0 0.00 0.00 0.00 58 1022.7
20260506221159 77 285 6.0 6.0 0.00 0.00 0.00 58 1022.7
20260506220759 77 337 0.0 9.0 0.00 0.00 0.00 58 1022.8
20260506220359 76 60 8.0 8.0 0.00 0.00 0.00 58 1022.7
20260506215958 76 292 1.0 1.0 0.00 0.00 0.00 58 1022.9
20260506215558 76 317 0.0 1.0 0.00 0.00 0.00 59 1022.9
20260506215158 76 315 0.0 5.0 0.00 0.00 0.00 59 1023.0
20260506214758 76 69 0.0 8.0 0.00 0.00 0.00 59 1023.1
20260506214358 75 45 6.0 8.0 0.00 0.00 0.00 59 1023.2
20260506213958 75 20 5.0 9.0 0.00 0.00 0.00 60 1023.2
20260506213558 75 225 0.0 0.0 0.00 0.00 0.00 60 1023.2
20260506212754 75 294 0.0 0.0 0.00 0.00 0.00 60 1023.3
20260506212354 75 0 0.0 5.0 0.00 0.00 0.00 61 1023.2
20260506211554 74 229 0.0 3.0 0.00 0.00 0.00 61 1023.4
20260506211154 74 36 3.0 6.0 0.00 0.00 0.00 61 1023.3
20260506210753 74 337 0.0 0.0 0.00 0.00 0.00 62 1023.3
20260506210353 74 272 0.0 2.0 0.00 0.00 0.00 62 1023.4
20260506205953 74 209 0.0 0.0 0.00 0.00 0.00 62 1023.5
20260506205554 73 351 0.0 8.0 0.00 0.00 0.00 62 1023.6
20260506205153 73 218 8.0 8.0 0.00 0.00 0.00 62 1023.6
20260506204753 73 294 0.0 3.0 0.00 0.00 0.00 62 1023.6
20260506204353 73 252 0.0 3.0 0.00 0.00 0.00 63 1023.8
20260506203953 73 276 0.0 0.0 0.00 0.00 0.00 63 1023.7
20260506203552 72 211 0.0 8.0 0.00 0.00 0.00 63 1023.8
20260506203152 72 253 0.0 4.0 0.00 0.00 0.00 63 1024.0
20260506202752 72 258 0.0 4.0 0.00 0.00 0.00 63 1024.0
20260506202353 72 283 0.0 0.0 0.00 0.00 0.00 64 1024.1
20260506201952 72 301 0.0 4.0 0.00 0.00 0.00 63 1024.1
20260506201552 71 324 0.0 6.0 0.00 0.00 0.00 64 1024.1
20260506201152 71 0 0.0 0.0 0.00 0.00 0.00 64 1024.1
20260506200751 71 355 0.0 0.0 0.00 0.00 0.00 65 1024.2
20260506200351 71 328 0.0 5.0 0.00 0.00 0.00 66 1024.3
20260506195951 70 319 0.0 0.0 0.00 0.00 0.00 66 1024.3
20260506195551 70 209 0.0 0.0 0.00 0.00 0.00 67 1024.2
20260506195151 70 2 0.0 7.0 0.00 0.00 0.00 67 1024.3
20260506194351 70 227 0.0 0.0 0.00 0.00 0.00 67 1024.3
20260506193950 70 339 0.0 0.0 0.00 0.00 0.00 67 1024.4
20260506193550 69 45 0.0 0.0 0.00 0.00 0.00 67 1024.3
20260506193150 69 4 0.0 5.0 0.00 0.00 0.00 68 1024.4
20260506192750 69 247 0.0 0.0 0.00 0.00 0.00 69 1024.5
20260506192350 69 49 0.0 0.0 0.00 0.00 0.00 69 1024.5
20260506191950 68 90 0.0 0.0 0.00 0.00 0.00 70 1024.5
20260506191550 68 270 0.0 6.0 0.00 0.00 0.00 70 1024.7
20260506191149 68 299 0.0 5.0 0.00 0.00 0.00 70 1024.6
20260506190749 68 13 0.0 6.0 0.00 0.00 0.00 70 1024.7
20260506190350 67 67 0.0 5.0 0.00 0.00 0.00 71 1024.7
20260506185949 67 310 0.0 0.0 0.00 0.00 0.00 71 1024.8
20260506185549 67 321 0.0 0.0 0.00 0.00 0.00 72 1024.8
20260506185149 67 333 0.0 0.0 0.00 0.00 0.00 72 1024.8
20260506184749 67 9 0.0 0.0 0.00 0.00 0.00 73 1024.9
20260506184348 67 225 0.0 0.0 0.00 0.00 0.00 73 1024.8
20260506183948 66 222 0.0 5.0 0.00 0.00 0.00 73 1024.9
20260506183548 66 333 0.0 0.0 0.00 0.00 0.00 73 1024.9
20260506182748 66 346 0.0 0.0 0.00 0.00 0.00 74 1025.1
20260506182348 66 45 0.0 0.0 0.00 0.00 0.00 74 1025.0
20260506181948 65 321 1.0 6.0 0.00 0.00 0.00 75 1025.1
20260506181547 65 9 0.0 0.0 0.00 0.00 0.00 75 1025.0
20260506181147 65 72 0.0 0.0 0.00 0.00 0.00 75 1025.0
20260506180347 65 225 0.0 0.0 0.00 0.00 0.00 75 1025.0
20260506175947 64 220 0.0 0.0 0.00 0.00 0.00 76 1025.0
20260506175547 64 15 0.0 0.0 0.00 0.00 0.00 76 1025.0
20260506175147 64 344 0.0 5.0 0.00 0.00 0.00 76 1025.1
20260506174746 64 249 0.0 0.0 0.00 0.00 0.00 76 1025.2
20260506174347 64 243 0.0 0.0 0.00 0.00 0.00 77 1025.1
20260506173947 63 238 0.0 0.0 0.00 0.00 0.00 77 1025.0
20260506173546 63 342 0.0 0.0 0.00 0.00 0.00 77 1025.1
20260506173147 63 6 0.0 8.0 0.00 0.00 0.00 77 1025.1
20260506172746 63 218 0.0 0.0 0.00 0.00 0.00 77 1025.1
20260506172346 63 39 0.0 0.0 0.00 0.00 0.00 78 1025.0
20260506171945 63 326 0.0 0.0 0.00 0.00 0.00 78 1025.1
20260506171545 62 20 0.0 0.0 0.00 0.00 0.00 78 1025.1
20260506171145 62 238 0.0 0.0 0.00 0.00 0.00 78 1025.1
20260506170745 62 312 0.0 0.0 0.00 0.00 0.00 79 1025.1
20260506170345 62 270 0.0 0.0 0.00 0.00 0.00 79 1025.0
20260506165945 62 216 0.0 0.0 0.00 0.00 0.00 79 1025.1
20260506165545 62 232 0.0 0.0 0.00 0.00 0.00 80 1025.1
20260506165144 61 13 0.0 0.0 0.00 0.00 0.00 79 1025.1
20260506164744 61 270 0.0 0.0 0.00 0.00 0.00 80 1025.2
20260506164344 61 29 0.0 0.0 0.00 0.00 0.00 80 1025.2
20260506163944 61 45 0.0 0.0 0.00 0.00 0.00 81 1025.0
20260506163544 61 299 0.0 0.0 0.00 0.00 0.00 81 1025.2
20260506163144 61 281 0.0 2.0 0.00 0.00 0.00 81 1025.1
20260506162744 60 315 0.0 4.0 0.00 0.00 0.00 81 1025.1
20260506161943 60 319 0.0 6.0 0.00 0.00 0.00 81 1025.2
20260506161543 60 211 0.0 5.0 0.00 0.00 0.00 82 1025.3
20260506161143 60 222 0.0 0.0 0.00 0.00 0.00 82 1025.3
20260506160743 60 244 0.0 9.0 0.00 0.00 0.00 82 1025.3
20260506160343 60 315 0.0 9.0 0.00 0.00 0.00 83 1025.2
20260506155943 60 236 0.0 5.0 0.00 0.00 0.00 82 1025.3
20260506155543 60 252 0.0 0.0 0.00 0.00 0.00 83 1025.2
20260506155142 59 11 0.0 3.0 0.00 0.00 0.00 83 1025.2
20260506154742 59 315 0.0 0.0 0.00 0.00 0.00 83 1025.4
20260506153942 59 220 0.0 0.0 0.00 0.00 0.00 83 1025.3
20260506153542 59 209 0.0 8.0 0.00 0.00 0.00 83 1025.2
20260506153142 59 225 0.0 6.0 0.00 0.00 0.00 83 1025.3
20260506152742 58 227 0.0 0.0 0.00 0.00 0.00 84 1025.3
20260506152341 58 202 0.0 2.0 0.00 0.00 0.00 84 1025.2
20260506151541 58 213 0.0 0.0 0.00 0.00 0.00 84 1025.2
20260506151141 58 207 0.0 0.0 0.00 0.00 0.00 84 1025.3
20260506150741 58 225 0.0 0.0 0.00 0.00 0.00 84 1025.4
20260506150341 58 290 0.0 0.0 0.00 0.00 0.00 84 1025.3
20260506145941 58 274 0.0 0.0 0.00 0.00 0.00 84 1025.4
20260506145540 58 270 0.0 0.0 0.00 0.00 0.00 84 1025.4
20260506145140 58 301 0.0 0.0 0.00 0.00 0.00 84 1025.4
20260506144740 57 292 0.0 0.0 0.00 0.00 0.00 84 1025.3
20260506144340 57 200 0.0 0.0 0.00 0.00 0.00 84 1025.2
20260506143941 57 281 0.0 0.0 0.00 0.00 0.00 84 1025.4
20260506143540 57 274 0.0 0.0 0.00 0.00 0.00 84 1025.3
20260506143139 57 292 0.0 0.0 0.00 0.00 0.00 84 1025.3
20260506142739 57 0 0.0 0.0 0.00 0.00 0.00 84 1025.3
20260506142339 57 0 0.0 0.0 0.00 0.00 0.00 84 1025.2
20260506141939 57 324 0.0 0.0 0.00 0.00 0.00 84 1025.1
20260506141539 57 225 0.0 0.0 0.00 0.00 0.00 84 1025.2
20260506140739 57 315 0.0 0.0 0.00 0.00 0.00 84 1025.0
20260506140338 57 315 0.0 0.0 0.00 0.00 0.00 83 1025.0
20260506135538 57 270 0.0 0.0 0.00 0.00 0.00 83 1024.9
20260506135138 57 225 0.0 0.0 0.00 0.00 0.00 83 1024.9
20260506134738 57 225 0.0 0.0 0.00 0.00 0.00 83 1024.9
20260506134338 57 225 0.0 0.0 0.00 0.00 0.00 82 1024.8
20260506133938 57 225 0.0 0.0 0.00 0.00 0.00 83 1024.7
20260506133537 57 225 0.0 0.0 0.00 0.00 0.00 83 1024.7
20260506133137 57 135 0.0 0.0 0.00 0.00 0.00 83 1024.8
20260506132737 57 135 0.0 0.0 0.00 0.00 0.00 83 1024.8
20260506132337 57 135 0.0 0.0 0.00 0.00 0.00 82 1024.6
20260506131937 57 135 0.0 0.0 0.00 0.00 0.00 82 1024.5
20260506131537 57 45 0.0 0.0 0.00 0.00 0.00 82 1024.6
20260506131137 57 45 0.0 0.0 0.00 0.00 0.00 82 1024.6
20260506130736 56 45 0.0 0.0 0.00 0.00 0.00 82 1024.4
20260506130336 56 45 0.0 0.0 0.00 0.00 0.00 82 1024.5
20260506125936 56 45 0.0 0.0 0.00 0.00 0.00 82 1024.4
20260506125536 56 0 0.0 0.0 0.00 0.00 0.00 82 1024.5
20260506125136 56 45 0.0 0.0 0.00 0.00 0.00 81 1024.4
20260506124737 56 45 0.0 0.0 0.00 0.00 0.00 81 1024.5
20260506124336 56 45 0.0 0.0 0.00 0.00 0.00 81 1024.4
20260506123935 56 45 0.0 0.0 0.00 0.00 0.00 81 1024.4
20260506123536 56 45 0.0 0.0 0.00 0.00 0.00 82 1024.4
20260506123135 56 45 0.0 0.0 0.00 0.00 0.00 81 1024.5
20260506122735 56 45 0.0 0.0 0.00 0.00 0.00 81 1024.4
20260506122335 56 45 0.0 0.0 0.00 0.00 0.00 81 1024.4
20260506121935 56 45 0.0 0.0 0.00 0.00 0.00 81 1024.4
20260506121535 56 45 0.0 0.0 0.00 0.00 0.00 81 1024.4
20260506121134 56 45 0.0 0.0 0.00 0.00 0.00 81 1024.4
20260506120734 56 45 0.0 0.0 0.00 0.00 0.00 81 1024.3
20260506120334 56 45 0.0 0.0 0.00 0.00 0.00 81 1024.3
20260506115934 56 90 0.0 0.0 0.00 0.00 0.00 81 1024.4
20260506115534 56 45 0.0 0.0 0.00 0.00 0.00 81 1024.3
20260506115134 56 45 0.0 0.0 0.00 0.00 0.00 81 1024.2
20260506114734 56 45 0.0 0.0 0.00 0.00 0.00 81 1024.3
20260506114333 56 45 0.0 0.0 0.00 0.00 0.00 81 1024.2
20260506113933 56 58 0.0 0.0 0.00 0.00 0.00 81 1024.2
20260506113533 56 45 0.0 0.0 0.00 0.00 0.00 81 1024.2
20260506113133 56 45 0.0 0.0 0.00 0.00 0.00 81 1024.1
20260506112733 56 45 0.0 0.0 0.00 0.00 0.00 81 1024.2
20260506112333 56 45 0.0 0.0 0.00 0.00 0.00 81 1024.1
20260506111933 56 45 0.0 0.0 0.00 0.00 0.00 81 1024.1
20260506111532 56 45 0.0 0.0 0.00 0.00 0.00 81 1024.0
20260506111132 56 45 0.0 0.0 0.00 0.00 0.00 81 1024.1
20260506110732 56 45 0.0 0.0 0.00 0.00 0.00 81 1024.0
20260506110332 56 45 0.0 0.0 0.00 0.00 0.00 81 1023.9
20260506105932 56 0 0.0 0.0 0.00 0.00 0.00 81 1023.9
20260506105532 56 45 0.0 0.0 0.00 0.00 0.00 81 1023.9
20260506105132 56 45 0.0 0.0 0.00 0.00 0.00 81 1023.8
20260506104732 56 45 0.0 0.0 0.00 0.00 0.00 81 1023.8
20260506104332 56 54 0.0 0.0 0.00 0.00 0.00 80 1023.8
20260506103931 56 45 0.0 0.0 0.00 0.00 0.00 80 1023.7
20260506103531 56 45 0.0 0.0 0.00 0.00 0.00 80 1023.7
20260506103131 56 45 0.0 0.0 0.00 0.00 0.00 80 1023.7
20260506102731 56 87 0.0 0.0 0.00 0.00 0.00 80 1023.7
20260506102331 56 0 0.0 0.0 0.00 0.00 0.00 80 1023.7
20260506101931 56 45 0.0 0.0 0.00 0.00 0.00 80 1023.8
20260506101530 56 45 0.0 0.0 0.00 0.00 0.00 80 1023.8
20260506101130 56 45 0.0 0.0 0.00 0.00 0.00 81 1023.6
20260506100730 56 45 0.0 0.0 0.00 0.00 0.00 80 1023.5
20260506100331 56 45 0.0 0.0 0.00 0.00 0.00 81 1023.6
20260506095130 56 45 0.0 0.0 0.00 0.00 0.00 81 1023.4
20260506094729 57 0 0.0 0.0 0.00 0.00 0.00 81 1023.4
20260506094329 57 24 0.0 0.0 0.00 0.00 0.00 81 1023.3
20260506093929 57 324 0.0 0.0 0.00 0.00 0.00 81 1023.3
20260506093529 57 45 0.0 0.0 0.00 0.00 0.00 80 1023.2
20260506093129 57 0 0.0 0.0 0.00 0.00 0.00 80 1023.3
20260506092729 57 0 0.0 0.0 0.00 0.00 0.00 79 1023.2
20260506092329 57 315 0.0 0.0 0.00 0.00 0.00 79 1023.1
20260506091528 57 315 0.0 0.0 0.00 0.00 0.00 78 1023.2
20260506091128 57 315 0.0 0.0 0.00 0.00 0.00 79 1023.2
20260506090728 57 315 0.0 0.0 0.00 0.00 0.00 79 1023.3
20260506090328 57 315 0.0 0.0 0.00 0.00 0.00 79 1023.2
20260506085928 57 315 0.0 0.0 0.00 0.00 0.00 79 1023.3
20260506085528 57 315 0.0 0.0 0.00 0.00 0.00 79 1023.3
20260506085128 57 315 0.0 0.0 0.00 0.00 0.00 79 1023.3
20260506084727 57 315 0.0 0.0 0.00 0.00 0.00 79 1023.3
20260506084304 58 315 0.0 0.0 0.00 0.00 0.00 79 1023.4
20260506083927 58 315 0.0 0.0 0.00 0.00 0.00 79 1023.4
20260506083527 58 315 0.0 0.0 0.00 0.00 0.00 79 1023.5
20260506083127 58 315 0.0 0.0 0.00 0.00 0.00 79 1023.6
20260506082727 58 315 0.0 0.0 0.00 0.00 0.00 79 1023.6
20260506082326 58 315 0.0 0.0 0.00 0.00 0.00 79 1023.6
20260506081926 58 315 0.0 0.0 0.00 0.00 0.00 79 1023.7
20260506081526 58 315 0.0 0.0 0.00 0.00 0.00 79 1023.8
20260506081126 58 315 0.0 0.0 0.00 0.00 0.00 79 1023.8
20260506080726 58 315 0.0 0.0 0.00 0.00 0.00 80 1023.8
20260506080326 58 315 0.0 0.0 0.00 0.00 0.00 80 1023.7
20260506073525 58 315 0.0 0.0 0.00 0.00 0.00 80 1023.4
20260506073125 58 315 0.0 0.0 0.00 0.00 0.00 80 1023.4
20260506072725 58 0 0.0 0.0 0.00 0.00 0.00 80 1023.4
20260506072324 58 45 0.0 0.0 0.00 0.00 0.00 80 1023.2
20260506071924 58 270 0.0 0.0 0.00 0.00 0.00 80 1023.3
20260506071524 58 0 0.0 0.0 0.00 0.00 0.00 79 1023.3
20260506071124 58 333 0.0 0.0 0.00 0.00 0.00 80 1023.1
20260506070724 58 339 0.0 0.0 0.00 0.00 0.00 80 1023.1
20260506070324 59 324 0.0 0.0 0.00 0.00 0.00 80 1023.1
20260506061922 59 348 0.0 0.0 0.00 0.00 0.00 78 1022.6
20260506061522 59 315 0.0 0.0 0.00 0.00 0.00 78 1022.5
20260506061122 59 315 0.0 0.0 0.00 0.00 0.00 78 1022.5
20260506060722 60 315 0.0 0.0 0.00 0.00 0.00 78 1022.4
20260506060321 60 270 0.0 0.0 0.00 0.00 0.00 78 1022.3
20260506050717 61 270 0.0 0.0 0.00 0.00 0.00 75 1022.0
20260506045117 62 270 0.0 0.0 0.00 0.00 0.00 75 1021.8
20260506044717 62 238 0.0 0.0 0.00 0.00 0.00 75 1021.8
20260506044317 62 225 0.0 0.0 0.00 0.00 0.00 75 1021.8
20260506043916 62 256 0.0 2.0 0.00 0.00 0.00 75 1021.8
20260506043516 62 270 0.0 0.0 0.00 0.00 0.00 75 1021.6
20260506043116 62 315 0.0 1.0 0.00 0.00 0.00 75 1021.7
20260506042716 62 315 0.0 0.0 0.00 0.00 0.00 75 1021.4
20260506041916 63 270 0.0 0.0 0.00 0.00 0.00 75 1021.4
20260506041115 63 276 0.0 0.0 0.00 0.00 0.00 74 1021.2
20260506040715 63 294 0.0 0.0 0.00 0.00 0.00 74 1021.2
20260506040315 63 312 0.0 0.0 0.00 0.00 0.00 74 1021.2
20260506035915 63 315 0.0 0.0 0.00 0.00 0.00 74 1021.0
20260506035515 63 303 0.0 0.0 0.00 0.00 0.00 74 1021.2
20260506035114 63 270 0.0 0.0 0.00 0.00 0.00 74 1021.1
20260506034714 63 292 0.0 0.0 0.00 0.00 0.00 73 1021.0
20260506034313 63 236 0.0 0.0 0.00 0.00 0.00 73 1021.0
20260506033913 64 315 0.0 2.0 0.00 0.00 0.00 73 1021.0
20260506033514 64 346 1.0 1.0 0.00 0.00 0.00 73 1020.9
20260506032713 64 315 0.0 0.0 0.00 0.00 0.00 73 1020.8
20260506032313 64 315 0.0 0.0 0.00 0.00 0.00 73 1020.8
20260506031913 64 348 0.0 0.0 0.00 0.00 0.00 73 1020.7
20260506031112 64 315 0.0 0.0 0.00 0.00 0.00 72 1020.7
20260506030712 64 270 0.0 0.0 0.00 0.00 0.00 72 1020.6
20260506030312 64 306 0.0 0.0 0.00 0.00 0.00 72 1020.6
20260506025912 64 351 0.0 0.0 0.00 0.00 0.00 72 1020.6
20260506025512 64 292 0.0 0.0 0.00 0.00 0.00 72 1020.6
20260506025112 65 319 0.0 0.0 0.00 0.00 0.00 72 1020.6
20260506024711 65 315 0.0 0.0 0.00 0.00 0.00 72 1020.5
20260506024311 65 330 0.0 0.0 0.00 0.00 0.00 72 1020.5
20260506023911 65 262 0.0 0.0 0.00 0.00 0.00 72 1020.4
20260506023511 65 274 0.0 0.0 0.00 0.00 0.00 71 1020.3
20260506023111 65 208 0.0 0.0 0.00 0.00 0.00 71 1020.4
20260506022711 65 209 0.0 2.0 0.00 0.00 0.00 72 1020.3
20260506022311 65 301 0.0 0.0 0.00 0.00 0.00 72 1020.2
20260506021911 65 337 0.0 1.0 0.00 0.00 0.00 72 1020.3
20260506021510 65 292 0.0 2.0 0.00 0.00 0.00 72 1020.2
20260506021110 65 315 0.0 0.0 0.00 0.00 0.00 72 1020.2
20260506020711 65 315 0.0 0.0 0.00 0.00 0.00 71 1020.1
20260506020310 65 315 0.0 0.0 0.00 0.00 0.00 71 1020.1
20260506015510 65 192 0.0 0.0 0.00 0.00 0.00 71 1020.2
20260506015110 65 281 0.0 0.0 0.00 0.00 0.00 72 1020.1
20260506014709 66 249 0.0 0.0 0.00 0.00 0.00 72 1020.1
20260506014309 66 189 0.0 5.0 0.00 0.00 0.00 71 1020.1